Dean International
Flight School

Career Spotlight

Mika

Mika

Congratulations to Mika from Khazakstan. She recently sent us this photo of her flying an Airbus airliner.

More...
Mika's Success Story
close

Congratulations to Mika from Khazakstan. She recently sent us this photo of her flying an Airbus airliner.

Mario

Mario

My dreams could not have been realized if I wouldn't have been part of the Dean International family.

More...
Mario's Success Story
close

"My dreams could not have been realized if I wouldn't have been part of the Dean International family. Thank you Robert, thanks to all my co-workers, and thanks to all of my students!"

Fernando

Fernando

I am now working as a First Officer at TACA and am enjoying every moment of it.

More...
Fernando's Success Story
close

"Will never forget my time of flight training at Dean International. I am now working as a First Officer at TACA and am enjoying every moment of it."

Alvaro

Alvaro

Because of the flight time I was able to built while instructing, I got the experience needed to apply to an airline in Colombia.

More...
Alvaro's Success Story
close

Dean alumnus Alvaro Londoño currently flies with Tampa Cargo. He says of his experience at Dean: "I want to take this opportunity to thank you for giving me the chance to build my experience and expand my knowledge in Dean International. Because of the flight time I was able to built flight instructing, I got the experience needed to apply to an airline in Colombia."

Ralph

Ralph

Every Aruban student of Dean International has made it into Tiara Air Aruba, that is very nice.

More...
Ralph's Success Story
close

"Next to me is my Co-Pilot, Elison. This picture was taken on our first flight together, which was almost exactly 5 years after I finished at Dean International. [...] Every Aruban student of Dean International has made it into Tiara Air Aruba. [...] The future looks bright here in Aruba."

Rohaan

Rohaan

The [..] staff will all work diligently to help you finish your certificates as safely and efficiently as possible.

More...
Rohaan's Success Story
close

After receiving very hard times from other flight schools [...], I came to Dean International where Robert Dean personally sat down with me and gave me a financial and chronological look into how much remained to finish my private pilot certificate. Through his hard efforts as an instructor and mentor, I was able to finish my private pilot certificate within one week.

Welcome to Dean International

In over two decades, Dean International has educated over 7,000 pilots from all over the world, including over 1,000 students from India alone. By offering a great training experience, a friendly service staff, an ample variety of aircraft, and by improving constantly, we have become one of the largest, most prestigious FAA 141-approved flight schools in North America. Located in Miami, Florida, USA, our flight school offers an ideal location for year-round, "learn to fly" weather, flight training. Dean International is not only well-equipped to provide services to professional trainees but also caters to General Aviation renters. Visit or contact our headquarters at Kendall-Tamiami Executive Airport located in Miami, FL today to learn more about us, or simply read more about our programs if you are an international student interested in joining our school.

Local Airport Information
TAF FOR KTMB (Issued: Sun, November 23rd 2014 9:15 AM UTC)
TAF
      AMD KTMB 230915Z 2309/2406 12009KT P6SM VCSH SCT020 BKN035
      FM231400 14015G25KT P6SM VCSH SCT018 SCT040 BKN060
     
METAR FOR KTMB (Issued: Sun, November 23rd 2014 8:53 AM UTC):
KTMB 230853Z AUTO 12008KT 10SM SCT021 BKN026 BKN032 24/22 A3001 RMK AO2 SLP161 T02440222 56014

This weather information is provided by the National Weather Service.
It is automatically refreshed every three minutes.
TAF FOR KHST (Issued: Sun, November 23rd 2014 8:24 AM UTC)
TAF KHST 2308/2414 12012KT 9999 SCT025 QNH3001INS
      BECMG 2315/2316 13015G20KT 9999 BKN020 QNH2999INS
      BECMG 2318/2319 15015G20KT 9000 -SHRA SCT015 BKN025 QNH2993INS
      BECMG 2323/2324 16009KT 9999 NSW SCT030 QNH2996INS TX27/2317Z TN24/2310Z
     
METAR FOR KHST (Issued: Sun, November 23rd 2014 8:58 AM UTC):
KHST 230858Z AUTO 10008KT 10SM CLR 24/22 A3000 RMK AO2 SLP162 T02430222 57014 $

This weather information is provided by the National Weather Service.
It is automatically refreshed every three minutes.
TAF FOR KOPF (Issued: Sun, November 23rd 2014 9:15 AM UTC)
TAF
      AMD KOPF 230912Z 2309/2406 12011G16KT P6SM VCSH FEW019 SCT030 SCT040
      FM231400 14016G26KT P6SM VCSH SCT018 SCT040 BKN060
     
METAR FOR KOPF (Issued: Sun, November 23rd 2014 8:53 AM UTC):
KOPF 230853Z AUTO 12011KT 10SM FEW019 SCT032 SCT041 25/22 A3001 RMK AO2 SLP164 T02500222 56010

This weather information is provided by the National Weather Service.
It is automatically refreshed every three minutes.
TAF FOR KMIA (Issued: Sun, November 23rd 2014 9:15 AM UTC)
TAF
      AMD KMIA 230914Z 2309/2406 11011G19KT P6SM VCSH FEW020 BKN035
      FM231400 13016G26KT P6SM VCSH SCT018 SCT040 BKN060
     
METAR FOR KMIA (Issued: Sun, November 23rd 2014 8:53 AM UTC):
KMIA 230853Z 12010KT 10SM FEW025 BKN029 25/22 A3001 RMK AO2 SLP163 T02500222 56013

This weather information is provided by the National Weather Service.
It is automatically refreshed every three minutes.
Design by Ariel Llizo
© Dean International Inc. 2012